When you browse on this site, cookies collect data to enhance your experience and personalize the content and advertising you see.
Visit our Privacy Policy to learn more. By continuing to use the site, you agree to this use of cookies and data.
  • en Suisse
  • Liste des pays
  • À 7 jours
  • Température de l'eau
  • Carte satellitaire
  • Carte météo
  • Widgets météo
  • user-avatar
    Se connecter

    Météo par heure à Nakourou

    Ce jour, 22 Janvier, Mardi

    Heure Température Précipitation Vent Pression Humidité
    00:00 +16°C° 0.1 mm 1 m/s 605 mmHg 86%
    01:00 +15°C° 0.1 mm 1 m/s 605 mmHg 86%
    02:00 +15°C° 0 mm 1 m/s 605 mmHg 84%
    03:00 +15°C° 0 mm 1 m/s 605 mmHg 85%
    04:00 +15°C° 0 mm 1 m/s 604 mmHg 85%
    05:00 +14°C° 0 mm 1 m/s 604 mmHg 86%
    06:00 +16°C° 0 mm 1 m/s 605 mmHg 78%
    07:00 +19°C° 0 mm 1 m/s 606 mmHg 69%
    08:00 +21°C° 0 mm 1 m/s 606 mmHg 61%
    09:00 +21°C° 0 mm 2 m/s 607 mmHg 55%
    10:00 +24°C° 0 mm 3 m/s 607 mmHg 48%
    11:00 +26°C° 0 mm 4 m/s 607 mmHg 42%
    12:00 +27°C° 0 mm 4 m/s 607 mmHg 40%
    13:00 +27°C° 0 mm 4 m/s 607 mmHg 38%
    14:00 +28°C° 0 mm 4 m/s 607 mmHg 36%
    15:00 +27°C° 0 mm 4 m/s 606 mmHg 39%
    16:00 +26°C° 0 mm 4 m/s 606 mmHg 42%
    17:00 +25°C° 0 mm 3 m/s 605 mmHg 45%
    18:00 +22°C° 0 mm 3 m/s 605 mmHg 51%
    19:00 +20°C° 0 mm 2 m/s 605 mmHg 57%
    20:00 +19°C° 0 mm 1 m/s 605 mmHg 63%
    21:00 +18°C° 0 mm 1 m/s 605 mmHg 67%
    22:00 +16°C° 0 mm 1 m/s 605 mmHg 71%
    23:00 +15°C° 0 mm 1 m/s 605 mmHg 75%

    Demain, 23 Janvier, Mercredi

    Heure Température Précipitation Vent Pression Humidité
    00:00 +15°C° 0 mm 1 m/s 604 mmHg 78%
    01:00 +14°C° 0 mm 1 m/s 604 mmHg 80%
    02:00 +14°C° 0 mm 1 m/s 604 mmHg 82%
    03:00 +14°C° 0 mm 1 m/s 604 mmHg 82%
    04:00 +14°C° 0 mm 1 m/s 603 mmHg 82%
    05:00 +13°C° 0 mm 1 m/s 603 mmHg 81%
    06:00 +16°C° 0 mm 1 m/s 605 mmHg 70%
    07:00 +19°C° 0 mm 1 m/s 606 mmHg 58%
    08:00 +21°C° 0 mm 1 m/s 607 mmHg 47%
    09:00 +23°C° 0 mm 2 m/s 607 mmHg 42%
    10:00 +25°C° 0 mm 3 m/s 608 mmHg 36%
    11:00 +27°C° 0 mm 3 m/s 608 mmHg 31%
    12:00 +27°C° 0 mm 4 m/s 607 mmHg 30%
    13:00 +28°C° 0 mm 4 m/s 607 mmHg 28%
    14:00 +29°C° 0 mm 4 m/s 607 mmHg 27%
    15:00 +27°C° 0 mm 4 m/s 606 mmHg 30%
    16:00 +26°C° 0 mm 3 m/s 606 mmHg 33%
    17:00 +25°C° 0 mm 3 m/s 606 mmHg 36%
    18:00 +22°C° 0 mm 3 m/s 606 mmHg 44%
    19:00 +20°C° 0 mm 2 m/s 606 mmHg 53%
    20:00 +18°C° 0 mm 2 m/s 606 mmHg 61%
    21:00 +18°C° 0 mm 1 m/s 605 mmHg 67%
    22:00 +16°C° 0 mm 1 m/s 605 mmHg 73%
    23:00 +15°C° 0 mm 1 m/s 605 mmHg 79%

    Après-demain, 24 Janvier, Jeudi

    Heure Température Précipitation Vent Pression Humidité
    00:00 +15°C° 0 mm 1 m/s 605 mmHg 83%
    01:00 +14°C° 0 mm 1 m/s 604 mmHg 86%
    02:00 +14°C° 0 mm 1 m/s 604 mmHg 90%
    03:00 +14°C° 0 mm 1 m/s 604 mmHg 88%
    04:00 +13°C° 0 mm 1 m/s 604 mmHg 85%
    05:00 +13°C° 0 mm 1 m/s 604 mmHg 83%
    06:00 +15°C° 0 mm 1 m/s 605 mmHg 70%
    07:00 +18°C° 0 mm 1 m/s 606 mmHg 57%
    08:00 +21°C° 0 mm 1 m/s 607 mmHg 44%
    09:00 +23°C° 0 mm 2 m/s 608 mmHg 38%
    10:00 +25°C° 0 mm 2 m/s 608 mmHg 32%
    11:00 +27°C° 0 mm 3 m/s 609 mmHg 26%
    12:00 +28°C° 0 mm 3 m/s 608 mmHg 25%
    13:00 +28°C° 0 mm 4 m/s 608 mmHg 23%
    14:00 +29°C° 0 mm 4 m/s 607 mmHg 22%
    15:00 +28°C° 0 mm 4 m/s 607 mmHg 25%
    16:00 +27°C° 0 mm 4 m/s 606 mmHg 28%
    17:00 +25°C° 0 mm 4 m/s 606 mmHg 30%
    18:00 +22°C° 0 mm 3 m/s 606 mmHg 38%
    19:00 +19°C° 0 mm 3 m/s 606 mmHg 46%
    20:00 +17°C° 0 mm 2 m/s 605 mmHg 54%
    21:00 +16°C° 0 mm 1 m/s 605 mmHg 59%
    22:00 +15°C° 0 mm 1 m/s 605 mmHg 64%
    23:00 +14°C° 0 mm 1 m/s 605 mmHg 70%

    25 Janvier, Vendredi

    Heure Température Précipitation Vent Pression Humidité
    00:00 +14°C° 0 mm 1 m/s 604 mmHg 73%
    01:00 +13°C° 0 mm 1 m/s 604 mmHg 77%
    02:00 +13°C° 0 mm 1 m/s 603 mmHg 80%
    03:00 +12°C° 0 mm 1 m/s 603 mmHg 80%
    04:00 +12°C° 0 mm 1 m/s 603 mmHg 80%
    05:00 +12°C° 0 mm 1 m/s 603 mmHg 79%
    06:00 +14°C° 0 mm 1 m/s 605 mmHg 67%
    07:00 +18°C° 0 mm 1 m/s 606 mmHg 55%
    08:00 +20°C° 0 mm 1 m/s 608 mmHg 43%
    09:00 +23°C° 0 mm 2 m/s 608 mmHg 38%
    10:00 +25°C° 0 mm 3 m/s 608 mmHg 33%
    11:00 +27°C° 0 mm 3 m/s 609 mmHg 28%
    12:00 +27°C° 0 mm 3 m/s 608 mmHg 28%
    13:00 +27°C° 0 mm 4 m/s 607 mmHg 27%
    14:00 +28°C° 0 mm 4 m/s 607 mmHg 27%
    15:00 +26°C° 0.1 mm 3 m/s 606 mmHg 32%
    16:00 +25°C° 0.1 mm 3 m/s 606 mmHg 36%
    17:00 +22°C° 0.1 mm 3 m/s 605 mmHg 41%
    18:00 +20°C° 0 mm 2 m/s 605 mmHg 48%
    19:00 +18°C° 0 mm 2 m/s 605 mmHg 55%
    20:00 +16°C° 0 mm 1 m/s 605 mmHg 63%
    21:00 +16°C° 0 mm 1 m/s 605 mmHg 67%
    22:00 +15°C° 0 mm 1 m/s 605 mmHg 71%
    23:00 +14°C° 0 mm 1 m/s 605 mmHg 76%

    26 Janvier, Samedi

    Heure Température Précipitation Vent Pression Humidité
    00:00 +14°C° 0 mm 1 m/s 605 mmHg 78%
    01:00 +14°C° 0 mm 1 m/s 604 mmHg 80%
    02:00 +13°C° 0 mm 1 m/s 603 mmHg 82%
    03:00 +13°C° 0 mm 1 m/s 603 mmHg 83%
    04:00 +12°C° 0 mm 1 m/s 603 mmHg 84%
    05:00 +12°C° 0 mm 1 m/s 603 mmHg 84%
    06:00 +15°C° 0 mm 1 m/s 605 mmHg 71%
    07:00 +18°C° 0 mm 1 m/s 606 mmHg 58%
    08:00 +21°C° 0 mm 1 m/s 607 mmHg 45%
    09:00 +23°C° 0 mm 2 m/s 608 mmHg 39%
    10:00 +25°C° 0 mm 2 m/s 608 mmHg 33%
    11:00 +27°C° 0 mm 3 m/s 608 mmHg 27%
    12:00 +28°C° 0 mm 3 m/s 608 mmHg 27%
    13:00 +28°C° 0 mm 4 m/s 607 mmHg 27%
    14:00 +28°C° 0 mm 4 m/s 607 mmHg 27%
    15:00 +27°C° 0 mm 4 m/s 606 mmHg 32%
    16:00 +25°C° 0 mm 4 m/s 606 mmHg 36%
    17:00 +23°C° 0 mm 4 m/s 605 mmHg 41%
    18:00 +21°C° 0 mm 3 m/s 606 mmHg 50%
    19:00 +19°C° 0 mm 2 m/s 606 mmHg 58%
    20:00 +17°C° 0 mm 2 m/s 606 mmHg 67%
    21:00 +16°C° 0 mm 1 m/s 606 mmHg 74%
    22:00 +16°C° 0 mm 1 m/s 606 mmHg 81%
    23:00 +15°C° 0 mm 1 m/s 605 mmHg 88%

    27 Janvier, Dimanche

    Heure Température Précipitation Vent Pression Humidité
    00:00 +14°C° 0 mm 1 m/s 605 mmHg 89%
    01:00 +14°C° 0 mm 1 m/s 604 mmHg 91%
    02:00 +14°C° 0 mm 1 m/s 604 mmHg 93%
    03:00 +14°C° 0 mm 1 m/s 604 mmHg 93%
    04:00 +13°C° 0 mm 1 m/s 604 mmHg 93%
    05:00 +13°C° 0 mm 1 m/s 604 mmHg 93%
    06:00 +15°C° 0 mm 1 m/s 605 mmHg 78%
    07:00 +18°C° 0 mm 1 m/s 606 mmHg 63%
    08:00 +19°C° 0 mm 2 m/s 607 mmHg 48%
    09:00 +21°C° 0 mm 2 m/s 608 mmHg 41%
    10:00 +25°C° 0 mm 3 m/s 608 mmHg 34%
    11:00 +27°C° 0 mm 4 m/s 608 mmHg 28%
    12:00 +27°C° 0 mm 4 m/s 608 mmHg 26%
    13:00 +28°C° 0 mm 4 m/s 607 mmHg 25%
    14:00 +28°C° 0 mm 4 m/s 607 mmHg 24%
    15:00 +27°C° 0 mm 4 m/s 607 mmHg 26%
    16:00 +26°C° 0 mm 4 m/s 606 mmHg 28%
    17:00 +25°C° 0 mm 3 m/s 606 mmHg 30%
    18:00 +22°C° 0 mm 3 m/s 606 mmHg 38%
    19:00 +19°C° 0 mm 2 m/s 605 mmHg 45%
    20:00 +17°C° 0 mm 2 m/s 605 mmHg 53%
    21:00 +16°C° 0 mm 1 m/s 605 mmHg 60%
    22:00 +15°C° 0 mm 1 m/s 605 mmHg 67%
    23:00 +14°C° 0 mm 1 m/s 605 mmHg 74%
    Voir plus